Home > Weather > Resistencia > Past weeks

Flag for Argentina Past Weather in Resistencia, Chaco, Argentina — Yesterday and Last 2 Weeks

Now
90 °F

Clear.


Feels Like: 88 °F
Forecast: 75 / 95 °F
Wind: 16 mph from Northeast

Location: Resistencia Aero.

Current Time: Aug 27, 2016 at 12:30:07 PM

Latest Report: Aug 27, 2016 at 12:00 PM


Visibility: 4 mi

Pressure: 29.77 "Hg

Humidity: 31%

Dew Point: 55 °F

Location of ResistenciaLocation

Past Weather in Resistencia — Graph

°F

Resistencia Temperature Yesterday

Maximum temperature yesterday: 99 °F (at 3:00 PM)
Minimum temperature yesterday: 68 °F (at 1:00 AM)
Average temperature yesterday: 81 °F

High & Low Weather Summary for the Past Weeks

 TemperatureHumidityPressure
High99 °F (Aug 26, 3:00 PM)100% (Aug 14, 4:00 AM)30.48 "Hg (Aug 14, 4:00 AM)
Low36 °F (Aug 22, 7:00 AM)23% (Aug 18, 4:00 PM)29.53 "Hg (Aug 16, 6:00 PM)
Average67 °F60%29.94 "Hg
* Reported Aug 12 11:00 AM — Aug 27 11:00 AM, Resistencia, Weather by CustomWeather, © 2016

Note: Actual official high and low records may vary slightly from our data, if they occured in-between our weather recording intervals... More about our weather records

Advertising

Resistencia Weather History for the Previous 24 Hours

Scroll right to see more
 ConditionsComfort  
Time TempWeatherWind HumidityBarometerVisibility
11:00 AM
Sat, Aug 27
90 °FClear.21 mph27%29.77 "Hg4 mi
10:00 AM84 °FClear.18 mph37%29.77 "Hg3 mi
9:00 AM79 °FClear.16 mph45%29.77 "Hg3 mi
8:00 AM75 °FPartly sunny.12 mph57%29.77 "Hg4 mi
7:00 AM75 °FBroken clouds.12 mph57%29.74 "Hg4 mi
6:00 AM75 °FClear.10 mph61%29.74 "Hg10 mi
5:00 AM75 °FPassing clouds.8 mph65%29.74 "HgN/A
4:00 AM75 °FClear.7 mph69%29.74 "Hg10 mi
3:00 AM77 °FClear.5 mph57%29.74 "Hg10 mi
2:00 AM77 °FClear.6 mph61%29.74 "Hg10 mi
1:00 AM77 °FClear.6 mph61%29.74 "Hg10 mi
12:00 AM81 °FClear.7 mph54%29.74 "Hg10 mi
11:00 PM
Fri, Aug 26
81 °FClear.8 mph54%29.74 "Hg10 mi
10:00 PM82 °FClear.7 mph51%29.74 "Hg5 mi
9:00 PM84 °FClear.7 mph51%29.71 "Hg5 mi
8:00 PM84 °FClear.7 mph45%29.68 "Hg5 mi
7:00 PM88 °FClear.7 mph40%29.68 "Hg5 mi
6:00 PM93 °FClear.9 mph32%29.68 "Hg4 mi
5:00 PM97 °FClear.13 mph28%29.68 "Hg4 mi
4:00 PM99 °FClear.17 mph25%29.68 "Hg4 mi
3:00 PM99 °FClear.15 mph27%29.71 "Hg4 mi
2:00 PM97 °FClear.16 mph28%29.74 "Hg4 mi
1:00 PM95 °FClear.15 mph30%29.77 "Hg4 mi
12:00 PM91 °FClear.13 mph34%29.80 "Hg5 mi
Weather by CustomWeather, © 2016

See weather overviewHow to use our weather pages